Wetterdaten: Samstag, 17.10.2015
Datum Zeit Temperatur Luftfeuchte Luftdruck Regen Wind Richtung Richtung Sonnenschein ET UV Solar Taupunkt Windchill Windben
17.10.2015 00:00 6,5 C 78 % 1018,2 hPa 0,0 l/m 0,0 km/h (0 Bft) W 278 0 min 0,000 mm 0,0 UV-I 0 W/m 2,9 C 6,5 C 0,0 km/h (0 Bft)
17.10.2015 00:05 6,6 C 78 % 1018,2 hPa 0,0 l/m 0,0 km/h (0 Bft) W 278 0 min 0,000 mm 0,0 UV-I 0 W/m 3,0 C 6,6 C 0,0 km/h (0 Bft)
17.10.2015 00:10 6,6 C 78 % 1018,2 hPa 0,0 l/m 0,0 km/h (0 Bft) W 278 0 min 0,000 mm 0,0 UV-I 0 W/m 3,0 C 6,6 C 0,0 km/h (0 Bft)
17.10.2015 00:15 6,6 C 78 % 1018,2 hPa 0,0 l/m 0,0 km/h (0 Bft) W 278 0 min 0,000 mm 0,0 UV-I 0 W/m 3,0 C 6,6 C 0,0 km/h (0 Bft)
17.10.2015 00:20 6,5 C 78 % 1018,2 hPa 0,0 l/m 0,0 km/h (0 Bft) W 278 0 min 0,000 mm 0,0 UV-I 0 W/m 2,9 C 6,5 C 0,0 km/h (0 Bft)
17.10.2015 00:25 6,5 C 78 % 1018,3 hPa 0,0 l/m 0,0 km/h (0 Bft) W 278 0 min 0,000 mm 0,0 UV-I 0 W/m 2,9 C 6,5 C 0,0 km/h (0 Bft)
17.10.2015 00:30 6,5 C 78 % 1018,3 hPa 0,0 l/m 0,0 km/h (0 Bft) W 278 0 min 0,000 mm 0,0 UV-I 0 W/m 2,9 C 6,5 C 0,0 km/h (0 Bft)
17.10.2015 00:35 6,5 C 78 % 1018,2 hPa 0,0 l/m 0,0 km/h (0 Bft) W 278 0 min 0,000 mm 0,0 UV-I 0 W/m 2,9 C 6,5 C 0,0 km/h (0 Bft)
17.10.2015 00:40 6,4 C 79 % 1018,2 hPa 0,0 l/m 0,0 km/h (0 Bft) W 278 0 min 0,000 mm 0,0 UV-I 0 W/m 3,0 C 6,4 C 0,0 km/h (0 Bft)
17.10.2015 00:45 6,4 C 79 % 1018,2 hPa 0,0 l/m 0,0 km/h (0 Bft) W 278 0 min 0,000 mm 0,0 UV-I 0 W/m 3,0 C 6,4 C 0,0 km/h (0 Bft)
17.10.2015 00:50 6,4 C 79 % 1018,2 hPa 0,0 l/m 0,0 km/h (0 Bft) W 278 0 min 0,000 mm 0,0 UV-I 0 W/m 3,0 C 6,4 C 0,0 km/h (0 Bft)
17.10.2015 00:55 6,4 C 79 % 1018,2 hPa 0,0 l/m 0,0 km/h (0 Bft) W 278 0 min 0,000 mm 0,0 UV-I 0 W/m 3,0 C 6,4 C 0,0 km/h (0 Bft)
17.10.2015 01:00 6,4 C 79 % 1018,1 hPa 0,0 l/m 0,0 km/h (0 Bft) W 278 0 min 0,000 mm 0,0 UV-I 0 W/m 3,0 C 6,4 C 0,0 km/h (0 Bft)
17.10.2015 01:05 6,4 C 79 % 1018,1 hPa 0,0 l/m 0,0 km/h (0 Bft) W 278 0 min 0,025 mm 0,0 UV-I 0 W/m 3,0 C 6,4 C 0,0 km/h (0 Bft)
17.10.2015 01:10 6,4 C 79 % 1018,1 hPa 0,0 l/m 0,0 km/h (0 Bft) W 278 0 min 0,000 mm 0,0 UV-I 0 W/m 3,0 C 6,4 C 0,0 km/h (0 Bft)
17.10.2015 01:15 6,4 C 79 % 1018,1 hPa 0,0 l/m 0,0 km/h (0 Bft) W 278 0 min 0,000 mm 0,0 UV-I 0 W/m 3,0 C 6,4 C 0,0 km/h (0 Bft)
17.10.2015 01:20 6,4 C 79 % 1018,0 hPa 0,0 l/m 0,0 km/h (0 Bft) W 278 0 min 0,000 mm 0,0 UV-I 0 W/m 3,0 C 6,4 C 0,0 km/h (0 Bft)
17.10.2015 01:25 6,4 C 79 % 1018,1 hPa 0,0 l/m 0,0 km/h (0 Bft) W 278 0 min 0,000 mm 0,0 UV-I 0 W/m 3,0 C 6,4 C 0,0 km/h (0 Bft)
17.10.2015 01:30 6,4 C 79 % 1018,1 hPa 0,0 l/m 0,0 km/h (0 Bft) W 278 0 min 0,000 mm 0,0 UV-I 0 W/m 3,0 C 6,4 C 0,0 km/h (0 Bft)
17.10.2015 01:35 6,4 C 79 % 1018,1 hPa 0,0 l/m 0,0 km/h (0 Bft) W 278 0 min 0,000 mm 0,0 UV-I 0 W/m 3,0 C 6,4 C 0,0 km/h (0 Bft)
17.10.2015 01:40 6,4 C 79 % 1018,0 hPa 0,0 l/m 0,0 km/h (0 Bft) W 278 0 min 0,000 mm 0,0 UV-I 0 W/m 3,0 C 6,4 C 0,0 km/h (0 Bft)
17.10.2015 01:45 6,4 C 79 % 1018,0 hPa 0,0 l/m 0,0 km/h (0 Bft) W 278 0 min 0,000 mm 0,0 UV-I 0 W/m 3,0 C 6,4 C 0,0 km/h (0 Bft)
17.10.2015 01:50 6,4 C 79 % 1017,9 hPa 0,0 l/m 0,0 km/h (0 Bft) W 278 0 min 0,000 mm 0,0 UV-I 0 W/m 3,0 C 6,4 C 0,0 km/h (0 Bft)
17.10.2015 01:55 6,4 C 79 % 1017,9 hPa 0,0 l/m 0,0 km/h (0 Bft) W 278 0 min 0,000 mm 0,0 UV-I 0 W/m 3,0 C 6,4 C 0,0 km/h (0 Bft)
17.10.2015 02:00 6,4 C 79 % 1018,0 hPa 0,0 l/m 0,0 km/h (0 Bft) W 278 0 min 0,000 mm 0,0 UV-I 0 W/m 3,0 C 6,4 C 0,0 km/h (0 Bft)
17.10.2015 02:05 6,4 C 79 % 1017,9 hPa 0,0 l/m 0,0 km/h (0 Bft) W 278 0 min 0,000 mm 0,0 UV-I 0 W/m 3,0 C 6,4 C 0,0 km/h (0 Bft)
17.10.2015 02:10 6,4 C 79 % 1018,0 hPa 0,0 l/m 0,0 km/h (0 Bft) W 278 0 min 0,000 mm 0,0 UV-I 0 W/m 3,0 C 6,4 C 0,0 km/h (0 Bft)
17.10.2015 02:15 6,4 C 79 % 1018,2 hPa 0,0 l/m 0,0 km/h (0 Bft) W 278 0 min 0,000 mm 0,0 UV-I 0 W/m 3,0 C 6,4 C 0,0 km/h (0 Bft)
17.10.2015 02:20 6,4 C 79 % 1018,2 hPa 0,0 l/m 0,0 km/h (0 Bft) W 278 0 min 0,000 mm 0,0 UV-I 0 W/m 3,0 C 6,4 C 0,0 km/h (0 Bft)
17.10.2015 02:25 6,4 C 79 % 1018,2 hPa 0,0 l/m 0,0 km/h (0 Bft) W 278 0 min 0,000 mm 0,0 UV-I 0 W/m 3,0 C 6,4 C 0,0 km/h (0 Bft)
17.10.2015 02:30 6,3 C 79 % 1018,2 hPa 0,0 l/m 0,0 km/h (0 Bft) W 278 0 min 0,000 mm 0,0 UV-I 0 W/m 2,9 C 6,3 C 0,0 km/h (0 Bft)
17.10.2015 02:35 6,3 C 79 % 1018,2 hPa 0,0 l/m 0,0 km/h (0 Bft) W 278 0 min 0,000 mm 0,0 UV-I 0 W/m 2,9 C 6,3 C 0,0 km/h (0 Bft)
17.10.2015 02:40 6,3 C 79 % 1018,2 hPa 0,0 l/m 0,0 km/h (0 Bft) W 278 0 min 0,000 mm 0,0 UV-I 0 W/m 2,9 C 6,3 C 0,0 km/h (0 Bft)
17.10.2015 02:45 6,3 C 79 % 1018,2 hPa 0,0 l/m 0,0 km/h (0 Bft) W 278 0 min 0,000 mm 0,0 UV-I 0 W/m 2,9 C 6,3 C 0,0 km/h (0 Bft)
17.10.2015 02:50 6,3 C 79 % 1018,2 hPa 0,0 l/m 0,0 km/h (0 Bft) W 278 0 min 0,000 mm 0,0 UV-I 0 W/m 2,9 C 6,3 C 0,0 km/h (0 Bft)
17.10.2015 02:55 6,3 C 79 % 1018,2 hPa 0,0 l/m 0,0 km/h (0 Bft) W 278 0 min 0,000 mm 0,0 UV-I 0 W/m 2,9 C 6,3 C 0,0 km/h (0 Bft)
17.10.2015 03:00 6,3 C 79 % 1018,1 hPa 0,0 l/m 0,0 km/h (0 Bft) W 278 0 min 0,000 mm 0,0 UV-I 0 W/m 2,9 C 6,3 C 0,0 km/h (0 Bft)
17.10.2015 03:05 6,3 C 79 % 1018,1 hPa 0,0 l/m 0,0 km/h (0 Bft) W 278 0 min 0,000 mm 0,0 UV-I 0 W/m 2,9 C 6,3 C 0,0 km/h (0 Bft)
17.10.2015 03:10 6,3 C 79 % 1018,0 hPa 0,0 l/m 0,0 km/h (0 Bft) W 278 0 min 0,000 mm 0,0 UV-I 0 W/m 2,9 C 6,3 C 0,0 km/h (0 Bft)
17.10.2015 03:15 6,4 C 79 % 1018,0 hPa 0,0 l/m 0,0 km/h (0 Bft) W 278 0 min 0,000 mm 0,0 UV-I 0 W/m 3,0 C 6,4 C 0,0 km/h (0 Bft)
17.10.2015 03:20 6,4 C 79 % 1017,9 hPa 0,0 l/m 0,0 km/h (0 Bft) W 278 0 min 0,000 mm 0,0 UV-I 0 W/m 3,0 C 6,4 C 0,0 km/h (0 Bft)
17.10.2015 03:25 6,3 C 79 % 1017,8 hPa 0,0 l/m 0,0 km/h (0 Bft) W 278 0 min 0,000 mm 0,0 UV-I 0 W/m 2,9 C 6,3 C 0,0 km/h (0 Bft)
17.10.2015 03:30 6,3 C 79 % 1017,9 hPa 0,0 l/m 0,0 km/h (0 Bft) W 278 0 min 0,000 mm 0,0 UV-I 0 W/m 2,9 C 6,3 C 0,0 km/h (0 Bft)
17.10.2015 03:35 6,3 C 79 % 1017,8 hPa 0,0 l/m 0,0 km/h (0 Bft) W 278 0 min 0,000 mm 0,0 UV-I 0 W/m 2,9 C 6,3 C 0,0 km/h (0 Bft)
17.10.2015 03:40 6,3 C 79 % 1017,8 hPa 0,0 l/m 0,0 km/h (0 Bft) S-SW 199 0 min 0,000 mm 0,0 UV-I 0 W/m 2,9 C 6,3 C 1,6 km/h (1 Bft)
17.10.2015 03:45 6,3 C 79 % 1017,8 hPa 0,0 l/m 0,0 km/h (0 Bft) S-SW 198 0 min 0,000 mm 0,0 UV-I 0 W/m 2,9 C 6,3 C 0,0 km/h (0 Bft)
17.10.2015 03:50 6,2 C 79 % 1017,8 hPa 0,0 l/m 0,0 km/h (0 Bft) S-SW 198 0 min 0,000 mm 0,0 UV-I 0 W/m 2,8 C 6,2 C 0,0 km/h (0 Bft)
17.10.2015 03:55 6,2 C 79 % 1017,9 hPa 0,0 l/m 0,0 km/h (0 Bft) S-SW 198 0 min 0,000 mm 0,0 UV-I 0 W/m 2,8 C 6,2 C 0,0 km/h (0 Bft)
17.10.2015 04:00 6,2 C 79 % 1017,8 hPa 0,0 l/m 0,0 km/h (0 Bft) S-SW 198 0 min 0,000 mm 0,0 UV-I 0 W/m 2,8 C 6,2 C 0,0 km/h (0 Bft)
17.10.2015 04:05 6,2 C 79 % 1017,8 hPa 0,0 l/m 0,0 km/h (0 Bft) S-SW 198 0 min 0,000 mm 0,0 UV-I 0 W/m 2,8 C 6,2 C 0,0 km/h (0 Bft)
17.10.2015 04:10 6,2 C 79 % 1017,7 hPa 0,0 l/m 0,0 km/h (0 Bft) S-SW 198 0 min 0,000 mm 0,0 UV-I 0 W/m 2,8 C 6,2 C 0,0 km/h (0 Bft)
17.10.2015 04:15 6,2 C 79 % 1017,8 hPa 0,0 l/m 0,0 km/h (0 Bft) S-SW 198 0 min 0,000 mm 0,0 UV-I 0 W/m 2,8 C 6,2 C 0,0 km/h (0 Bft)
17.10.2015 04:20 6,2 C 79 % 1017,8 hPa 0,0 l/m 0,0 km/h (0 Bft) S-SW 198 0 min 0,000 mm 0,0 UV-I 0 W/m 2,8 C 6,2 C 0,0 km/h (0 Bft)
17.10.2015 04:25 6,2 C 79 % 1017,7 hPa 0,0 l/m 0,0 km/h (0 Bft) S-SW 194 0 min 0,000 mm 0,0 UV-I 0 W/m 2,8 C 6,2 C 1,6 km/h (1 Bft)
17.10.2015 04:30 6,1 C 79 % 1017,6 hPa 0,0 l/m 0,0 km/h (0 Bft) S-SW 194 0 min 0,000 mm 0,0 UV-I 0 W/m 2,7 C 6,1 C 0,0 km/h (0 Bft)
17.10.2015 04:35 6,2 C 79 % 1017,6 hPa 0,0 l/m 0,0 km/h (0 Bft) S-SW 194 0 min 0,000 mm 0,0 UV-I 0 W/m 2,8 C 6,2 C 0,0 km/h (0 Bft)
17.10.2015 04:40 6,1 C 79 % 1017,5 hPa 0,0 l/m 0,0 km/h (0 Bft) S-SO 157 0 min 0,000 mm 0,0 UV-I 0 W/m 2,7 C 6,1 C 1,6 km/h (1 Bft)
17.10.2015 04:45 6,1 C 79 % 1017,6 hPa 0,0 l/m 0,0 km/h (0 Bft) SO 126 0 min 0,000 mm 0,0 UV-I 0 W/m 2,7 C 6,1 C 1,6 km/h (1 Bft)
17.10.2015 04:50 6,1 C 79 % 1017,5 hPa 0,0 l/m 0,2 km/h (0 Bft) S-SO 155 0 min 0,000 mm 0,0 UV-I 0 W/m 2,7 C 6,1 C 3,2 km/h (1 Bft)
17.10.2015 04:55 6,1 C 79 % 1017,6 hPa 0,0 l/m 0,0 km/h (0 Bft) S 186 0 min 0,000 mm 0,0 UV-I 0 W/m 2,7 C 6,1 C 1,6 km/h (1 Bft)
17.10.2015 05:00 6,1 C 79 % 1017,6 hPa 0,0 l/m 0,0 km/h (0 Bft) O-SO 107 0 min 0,000 mm 0,0 UV-I 0 W/m 2,7 C 6,1 C 1,6 km/h (1 Bft)
17.10.2015 05:05 6,0 C 79 % 1017,7 hPa 0,0 l/m 0,4 km/h (0 Bft) S-SO 156 0 min 0,000 mm 0,0 UV-I 0 W/m 2,6 C 6,0 C 4,8 km/h (1 Bft)
17.10.2015 05:10 6,0 C 79 % 1017,7 hPa 0,0 l/m 0,0 km/h (0 Bft) S-SO 152 0 min 0,000 mm 0,0 UV-I 0 W/m 2,6 C 6,0 C 0,0 km/h (0 Bft)
17.10.2015 05:15 6,0 C 79 % 1017,7 hPa 0,0 l/m 0,0 km/h (0 Bft) O 94 0 min 0,000 mm 0,0 UV-I 0 W/m 2,6 C 6,0 C 0,0 km/h (0 Bft)
17.10.2015 05:20 6,0 C 79 % 1017,8 hPa 0,0 l/m 0,0 km/h (0 Bft) SO 136 0 min 0,000 mm 0,0 UV-I 0 W/m 2,6 C 6,0 C 1,6 km/h (1 Bft)
17.10.2015 05:25 6,0 C 79 % 1017,8 hPa 0,0 l/m 0,0 km/h (0 Bft) O-SO 116 0 min 0,000 mm 0,0 UV-I 0 W/m 2,6 C 6,0 C 1,6 km/h (1 Bft)
17.10.2015 05:30 5,9 C 79 % 1017,7 hPa 0,0 l/m 0,0 km/h (0 Bft) O-SO 114 0 min 0,000 mm 0,0 UV-I 0 W/m 2,5 C 5,9 C 0,0 km/h (0 Bft)
17.10.2015 05:35 5,9 C 79 % 1017,7 hPa 0,0 l/m 0,0 km/h (0 Bft) S-SO 152 0 min 0,000 mm 0,0 UV-I 0 W/m 2,5 C 5,9 C 0,0 km/h (0 Bft)
17.10.2015 05:40 5,9 C 79 % 1017,7 hPa 0,0 l/m 0,0 km/h (0 Bft) SO 136 0 min 0,000 mm 0,0 UV-I 0 W/m 2,5 C 5,9 C 1,6 km/h (1 Bft)
17.10.2015 05:45 5,9 C 79 % 1017,6 hPa 0,0 l/m 0,0 km/h (0 Bft) O-SO 112 0 min 0,000 mm 0,0 UV-I 0 W/m 2,5 C 5,9 C 0,0 km/h (0 Bft)
17.10.2015 05:50 5,8 C 79 % 1017,6 hPa 0,0 l/m 0,1 km/h (0 Bft) SO 130 0 min 0,000 mm 0,0 UV-I 0 W/m 2,4 C 5,8 C 1,6 km/h (1 Bft)
17.10.2015 05:55 5,8 C 79 % 1017,5 hPa 0,0 l/m 0,0 km/h (0 Bft) SO 139 0 min 0,000 mm 0,0 UV-I 0 W/m 2,4 C 5,8 C 1,6 km/h (1 Bft)
17.10.2015 06:00 5,8 C 79 % 1017,5 hPa 0,0 l/m 0,0 km/h (0 Bft) SO 139 0 min 0,000 mm 0,0 UV-I 0 W/m 2,4 C 5,8 C 0,0 km/h (0 Bft)
17.10.2015 06:05 5,8 C 79 % 1017,4 hPa 0,0 l/m 0,0 km/h (0 Bft) SO 139 0 min 0,000 mm 0,0 UV-I 0 W/m 2,4 C 5,8 C 0,0 km/h (0 Bft)
17.10.2015 06:10 5,8 C 79 % 1017,5 hPa 0,0 l/m 0,0 km/h (0 Bft) SO 139 0 min 0,000 mm 0,0 UV-I 0 W/m 2,4 C 5,8 C 0,0 km/h (0 Bft)
17.10.2015 06:15 5,8 C 79 % 1017,4 hPa 0,0 l/m 0,0 km/h (0 Bft) SO 139 0 min 0,000 mm 0,0 UV-I 0 W/m 2,4 C 5,8 C 0,0 km/h (0 Bft)
17.10.2015 06:20 5,8 C 79 % 1017,4 hPa 0,0 l/m 0,0 km/h (0 Bft) SO 139 0 min 0,000 mm 0,0 UV-I 0 W/m 2,4 C 5,8 C 0,0 km/h (0 Bft)
17.10.2015 06:25 5,8 C 79 % 1017,4 hPa 0,0 l/m 0,0 km/h (0 Bft) SO 139 0 min 0,000 mm 0,0 UV-I 0 W/m 2,4 C 5,8 C 0,0 km/h (0 Bft)
17.10.2015 06:30 5,8 C 79 % 1017,4 hPa 0,0 l/m 0,0 km/h (0 Bft) SO 139 0 min 0,000 mm 0,0 UV-I 0 W/m 2,4 C 5,8 C 0,0 km/h (0 Bft)
17.10.2015 06:35 5,8 C 79 % 1017,3 hPa 0,0 l/m 0,0 km/h (0 Bft) SO 139 0 min 0,000 mm 0,0 UV-I 0 W/m 2,4 C 5,8 C 0,0 km/h (0 Bft)
17.10.2015 06:40 5,7 C 79 % 1017,3 hPa 0,0 l/m 0,0 km/h (0 Bft) S-SW 205 0 min 0,000 mm 0,0 UV-I 0 W/m 2,3 C 5,7 C 0,0 km/h (0 Bft)
17.10.2015 06:45 5,8 C 79 % 1017,3 hPa 0,0 l/m 0,0 km/h (0 Bft) S-SW 209 0 min 0,000 mm 0,0 UV-I 0 W/m 2,4 C 5,8 C 0,0 km/h (0 Bft)
17.10.2015 06:50 5,8 C 79 % 1017,3 hPa 0,0 l/m 0,0 km/h (0 Bft) S-SW 210 0 min 0,000 mm 0,0 UV-I 0 W/m 2,4 C 5,8 C 0,0 km/h (0 Bft)
17.10.2015 06:55 5,7 C 79 % 1017,3 hPa 0,0 l/m 0,0 km/h (0 Bft) S-SW 210 0 min 0,000 mm 0,0 UV-I 0 W/m 2,3 C 5,7 C 0,0 km/h (0 Bft)
17.10.2015 07:00 5,7 C 79 % 1017,3 hPa 0,0 l/m 0,0 km/h (0 Bft) S-SW 210 0 min 0,000 mm 0,0 UV-I 0 W/m 2,3 C 5,7 C 1,6 km/h (1 Bft)
17.10.2015 07:05 5,7 C 79 % 1017,3 hPa 0,0 l/m 0,0 km/h (0 Bft) S-SW 210 0 min 0,000 mm 0,0 UV-I 0 W/m 2,3 C 5,7 C 0,0 km/h (0 Bft)
17.10.2015 07:10 5,8 C 79 % 1017,5 hPa 0,0 l/m 0,0 km/h (0 Bft) S-SW 210 0 min 0,000 mm 0,0 UV-I 0 W/m 2,4 C 5,8 C 0,0 km/h (0 Bft)
17.10.2015 07:15 5,8 C 79 % 1017,5 hPa 0,0 l/m 0,0 km/h (0 Bft) S-SW 210 0 min 0,000 mm 0,0 UV-I 0 W/m 2,4 C 5,8 C 0,0 km/h (0 Bft)
17.10.2015 07:20 5,8 C 79 % 1017,3 hPa 0,0 l/m 0,0 km/h (0 Bft) S-SW 210 0 min 0,000 mm 0,0 UV-I 0 W/m 2,4 C 5,8 C 0,0 km/h (0 Bft)
17.10.2015 07:25 5,8 C 79 % 1017,3 hPa 0,0 l/m 0,0 km/h (0 Bft) S-SW 210 0 min 0,000 mm 0,0 UV-I 0 W/m 2,4 C 5,8 C 0,0 km/h (0 Bft)
17.10.2015 07:30 5,7 C 79 % 1017,3 hPa 0,0 l/m 0,0 km/h (0 Bft) S-SW 210 0 min 0,000 mm 0,0 UV-I 0 W/m 2,3 C 5,7 C 0,0 km/h (0 Bft)
17.10.2015 07:35 5,7 C 79 % 1017,3 hPa 0,0 l/m 0,0 km/h (0 Bft) S-SW 210 0 min 0,000 mm 0,0 UV-I 0 W/m 2,3 C 5,7 C 0,0 km/h (0 Bft)
17.10.2015 07:40 5,7 C 79 % 1017,3 hPa 0,0 l/m 0,0 km/h (0 Bft) S-SW 210 0 min 0,000 mm 0,0 UV-I 0 W/m 2,3 C 5,7 C 0,0 km/h (0 Bft)
17.10.2015 07:45 5,7 C 79 % 1017,3 hPa 0,0 l/m 0,0 km/h (0 Bft) S-SW 210 0 min 0,000 mm 0,0 UV-I 0 W/m 2,3 C 5,7 C 0,0 km/h (0 Bft)
17.10.2015 07:50 5,7 C 79 % 1017,3 hPa 0,0 l/m 0,0 km/h (0 Bft) S-SW 210 0 min 0,000 mm 0,0 UV-I 0 W/m 2,3 C 5,7 C 0,0 km/h (0 Bft)
17.10.2015 07:55 5,7 C 79 % 1017,2 hPa 0,0 l/m 0,0 km/h (0 Bft) S-SW 210 0 min 0,000 mm 0,0 UV-I 0 W/m 2,3 C 5,7 C 0,0 km/h (0 Bft)
17.10.2015 08:00 5,7 C 79 % 1017,4 hPa 0,0 l/m 0,0 km/h (0 Bft) S-SW 210 0 min 0,000 mm 0,0 UV-I 0 W/m 2,3 C 5,7 C 0,0 km/h (0 Bft)
17.10.2015 08:05 5,7 C 79 % 1017,5 hPa 0,0 l/m 0,0 km/h (0 Bft) S-SW 210 0 min 0,000 mm 0,0 UV-I 0 W/m 2,3 C 5,7 C 0,0 km/h (0 Bft)
17.10.2015 08:10 5,7 C 79 % 1017,5 hPa 0,0 l/m 0,0 km/h (0 Bft) S-SW 210 0 min 0,000 mm 0,0 UV-I 0 W/m 2,3 C 5,7 C 0,0 km/h (0 Bft)
17.10.2015 08:15 5,7 C 79 % 1017,6 hPa 0,0 l/m 0,0 km/h (0 Bft) S-SW 210 0 min 0,000 mm 0,0 UV-I 1 W/m 2,3 C 5,7 C 0,0 km/h (0 Bft)
17.10.2015 08:20 5,7 C 79 % 1017,7 hPa 0,0 l/m 0,0 km/h (0 Bft) S-SW 210 0 min 0,000 mm 0,0 UV-I 5 W/m 2,3 C 5,7 C 0,0 km/h (0 Bft)
17.10.2015 08:25 5,7 C 79 % 1017,7 hPa 0,0 l/m 0,0 km/h (0 Bft) S-SW 210 0 min 0,000 mm 0,0 UV-I 7 W/m 2,3 C 5,7 C 0,0 km/h (0 Bft)
17.10.2015 08:30 5,7 C 79 % 1017,8 hPa 0,0 l/m 0,0 km/h (0 Bft) O-SO 102 0 min 0,000 mm 0,0 UV-I 8 W/m 2,3 C 5,7 C 1,6 km/h (1 Bft)
17.10.2015 08:35 5,7 C 79 % 1017,8 hPa 0,0 l/m 0,0 km/h (0 Bft) O-SO 102 0 min 0,000 mm 0,0 UV-I 8 W/m 2,3 C 5,7 C 0,0 km/h (0 Bft)
17.10.2015 08:40 5,7 C 79 % 1017,8 hPa 0,0 l/m 0,0 km/h (0 Bft) O-SO 102 0 min 0,000 mm 0,0 UV-I 11 W/m 2,3 C 5,7 C 0,0 km/h (0 Bft)
17.10.2015 08:45 5,7 C 79 % 1017,8 hPa 0,0 l/m 0,0 km/h (0 Bft) O-SO 102 0 min 0,000 mm 0,0 UV-I 12 W/m 2,3 C 5,7 C 0,0 km/h (0 Bft)
17.10.2015 08:50 5,8 C 79 % 1017,9 hPa 0,0 l/m 0,0 km/h (0 Bft) O-SO 102 0 min 0,000 mm 0,0 UV-I 15 W/m 2,4 C 5,8 C 0,0 km/h (0 Bft)
17.10.2015 08:55 5,8 C 79 % 1017,9 hPa 0,0 l/m 0,0 km/h (0 Bft) O-SO 110 0 min 0,000 mm 0,0 UV-I 17 W/m 2,4 C 5,8 C 0,0 km/h (0 Bft)
17.10.2015 09:00 5,8 C 79 % 1017,8 hPa 0,0 l/m 0,0 km/h (0 Bft) O-SO 115 0 min 0,000 mm 0,0 UV-I 20 W/m 2,4 C 5,8 C 0,0 km/h (0 Bft)
17.10.2015 09:05 5,8 C 79 % 1017,8 hPa 0,0 l/m 0,0 km/h (0 Bft) O-SO 121 0 min 0,000 mm 0,0 UV-I 28 W/m 2,4 C 5,8 C 0,0 km/h (0 Bft)
17.10.2015 09:10 5,8 C 79 % 1017,9 hPa 0,0 l/m 0,0 km/h (0 Bft) O-SO 121 0 min 0,000 mm 0,0 UV-I 34 W/m 2,4 C 5,8 C 0,0 km/h (0 Bft)
17.10.2015 09:15 5,8 C 79 % 1018,0 hPa 0,0 l/m 0,0 km/h (0 Bft) SO 128 0 min 0,000 mm 0,0 UV-I 35 W/m 2,4 C 5,8 C 1,6 km/h (1 Bft)
17.10.2015 09:20 5,7 C 79 % 1018,0 hPa 0,0 l/m 0,0 km/h (0 Bft) S 190 0 min 0,000 mm 0,0 UV-I 34 W/m 2,3 C 5,7 C 0,0 km/h (0 Bft)
17.10.2015 09:25 5,7 C 79 % 1018,1 hPa 0,0 l/m 0,0 km/h (0 Bft) S 189 0 min 0,000 mm 0,0 UV-I 29 W/m 2,3 C 5,7 C 1,6 km/h (1 Bft)
17.10.2015 09:30 5,7 C 79 % 1018,2 hPa 0,0 l/m 0,0 km/h (0 Bft) SO 146 0 min 0,000 mm 0,0 UV-I 35 W/m 2,3 C 5,7 C 0,0 km/h (0 Bft)
17.10.2015 09:35 5,8 C 79 % 1018,2 hPa 0,0 l/m 0,0 km/h (0 Bft) SO 146 0 min 0,000 mm 0,0 UV-I 46 W/m 2,4 C 5,8 C 0,0 km/h (0 Bft)
17.10.2015 09:40 5,8 C 79 % 1018,3 hPa 0,0 l/m 0,0 km/h (0 Bft) SO 146 0 min 0,000 mm 0,0 UV-I 55 W/m 2,4 C 5,8 C 0,0 km/h (0 Bft)
17.10.2015 09:45 5,9 C 79 % 1018,3 hPa 0,0 l/m 0,0 km/h (0 Bft) SO 146 0 min 0,000 mm 0,0 UV-I 63 W/m 2,5 C 5,9 C 0,0 km/h (0 Bft)
17.10.2015 09:50 6,0 C 79 % 1018,3 hPa 0,0 l/m 0,0 km/h (0 Bft) SO 146 0 min 0,000 mm 0,0 UV-I 52 W/m 2,6 C 6,0 C 0,0 km/h (0 Bft)
17.10.2015 09:55 6,1 C 79 % 1018,4 hPa 0,0 l/m 0,0 km/h (0 Bft) SO 146 0 min 0,000 mm 0,0 UV-I 48 W/m 2,7 C 6,1 C 0,0 km/h (0 Bft)
17.10.2015 10:00 6,1 C 79 % 1018,4 hPa 0,0 l/m 0,0 km/h (0 Bft) SO 146 0 min 0,000 mm 0,0 UV-I 45 W/m 2,7 C 6,1 C 0,0 km/h (0 Bft)
17.10.2015 10:05 6,1 C 79 % 1018,3 hPa 0,0 l/m 0,0 km/h (0 Bft) SO 146 0 min 0,026 mm 0,0 UV-I 40 W/m 2,7 C 6,1 C 0,0 km/h (0 Bft)
17.10.2015 10:10 6,1 C 79 % 1018,4 hPa 0,0 l/m 0,0 km/h (0 Bft) O-SO 115 0 min 0,000 mm 0,0 UV-I 49 W/m 2,7 C 6,1 C 1,6 km/h (1 Bft)
17.10.2015 10:15 6,1 C 79 % 1018,5 hPa 0,0 l/m 0,0 km/h (0 Bft) O-SO 114 0 min 0,000 mm 0,0 UV-I 73 W/m 2,7 C 6,1 C 0,0 km/h (0 Bft)
17.10.2015 10:20 6,1 C 79 % 1018,6 hPa 0,0 l/m 0,0 km/h (0 Bft) S-SW 196 0 min 0,000 mm 0,0 UV-I 93 W/m 2,7 C 6,1 C 0,0 km/h (0 Bft)
17.10.2015 10:25 6,2 C 79 % 1018,5 hPa 0,0 l/m 0,0 km/h (0 Bft) S-SW 196 0 min 0,000 mm 0,4 UV-I 112 W/m 2,8 C 6,2 C 0,0 km/h (0 Bft)
17.10.2015 10:30 6,3 C 79 % 1018,5 hPa 0,0 l/m 0,0 km/h (0 Bft) S-SW 196 0 min 0,000 mm 0,3 UV-I 113 W/m 2,9 C 6,3 C 0,0 km/h (0 Bft)
17.10.2015 10:35 6,3 C 79 % 1018,6 hPa 0,0 l/m 0,0 km/h (0 Bft) S-SW 196 0 min 0,000 mm 0,0 UV-I 101 W/m 2,9 C 6,3 C 0,0 km/h (0 Bft)
17.10.2015 10:40 6,3 C 79 % 1018,5 hPa 0,0 l/m 0,0 km/h (0 Bft) S-SW 196 0 min 0,000 mm 0,0 UV-I 91 W/m 2,9 C 6,3 C 0,0 km/h (0 Bft)
17.10.2015 10:45 6,4 C 79 % 1018,5 hPa 0,0 l/m 0,0 km/h (0 Bft) S-SW 196 0 min 0,000 mm 0,0 UV-I 72 W/m 3,0 C 6,4 C 0,0 km/h (0 Bft)
17.10.2015 10:50 6,4 C 79 % 1018,5 hPa 0,0 l/m 0,0 km/h (0 Bft) S-SW 196 0 min 0,000 mm 0,0 UV-I 57 W/m 3,0 C 6,4 C 0,0 km/h (0 Bft)
17.10.2015 10:55 6,4 C 79 % 1018,6 hPa 0,0 l/m 0,0 km/h (0 Bft) S-SW 196 0 min 0,000 mm 0,0 UV-I 62 W/m 3,0 C 6,4 C 0,0 km/h (0 Bft)
17.10.2015 11:00 6,4 C 79 % 1018,6 hPa 0,0 l/m 0,0 km/h (0 Bft) S-SW 208 0 min 0,025 mm 0,0 UV-I 64 W/m 3,0 C 6,4 C 1,6 km/h (1 Bft)
17.10.2015 11:05 6,4 C 79 % 1018,6 hPa 0,0 l/m 0,0 km/h (0 Bft) S-SW 208 0 min 0,000 mm 0,4 UV-I 77 W/m 3,0 C 6,4 C 0,0 km/h (0 Bft)
17.10.2015 11:10 6,5 C 79 % 1018,6 hPa 0,0 l/m 0,0 km/h (0 Bft) S-SW 208 0 min 0,000 mm 0,5 UV-I 84 W/m 3,1 C 6,5 C 0,0 km/h (0 Bft)
17.10.2015 11:15 6,5 C 80 % 1018,6 hPa 0,0 l/m 0,0 km/h (0 Bft) S-SW 208 0 min 0,000 mm 0,5 UV-I 88 W/m 3,3 C 6,5 C 0,0 km/h (0 Bft)
17.10.2015 11:20 6,5 C 80 % 1018,6 hPa 0,0 l/m 0,0 km/h (0 Bft) S-SW 208 0 min 0,000 mm 0,5 UV-I 99 W/m 3,3 C 6,5 C 0,0 km/h (0 Bft)
17.10.2015 11:25 6,5 C 80 % 1018,6 hPa 0,0 l/m 0,3 km/h (0 Bft) W 260 0 min 0,000 mm 0,6 UV-I 107 W/m 3,3 C 6,5 C 4,8 km/h (1 Bft)
17.10.2015 11:30 6,5 C 80 % 1018,6 hPa 0,0 l/m 0,0 km/h (0 Bft) W 260 0 min 0,000 mm 0,6 UV-I 109 W/m 3,3 C 6,5 C 0,0 km/h (0 Bft)
17.10.2015 11:35 6,6 C 80 % 1018,6 hPa 0,0 l/m 0,0 km/h (0 Bft) W 260 0 min 0,000 mm 0,6 UV-I 109 W/m 3,4 C 6,6 C 0,0 km/h (0 Bft)
17.10.2015 11:40 6,6 C 80 % 1018,6 hPa 0,0 l/m 0,3 km/h (0 Bft) W 260 0 min 0,000 mm 0,6 UV-I 103 W/m 3,4 C 6,6 C 4,8 km/h (1 Bft)
17.10.2015 11:45 6,7 C 80 % 1018,7 hPa 0,0 l/m 0,0 km/h (0 Bft) W 260 0 min 0,000 mm 0,6 UV-I 94 W/m 3,5 C 6,7 C 1,6 km/h (1 Bft)
17.10.2015 11:50 6,7 C 80 % 1018,6 hPa 0,0 l/m 0,0 km/h (0 Bft) W 260 0 min 0,000 mm 0,6 UV-I 94 W/m 3,5 C 6,7 C 0,0 km/h (0 Bft)
17.10.2015 11:55 6,6 C 80 % 1018,6 hPa 0,0 l/m 0,1 km/h (0 Bft) S 169 0 min 0,000 mm 0,6 UV-I 92 W/m 3,4 C 6,6 C 3,2 km/h (1 Bft)
17.10.2015 12:00 6,4 C 80 % 1018,7 hPa 0,0 l/m 1,2 km/h (1 Bft) S-SO 150 0 min 0,000 mm 0,6 UV-I 93 W/m 3,2 C 6,4 C 6,4 km/h (2 Bft)
17.10.2015 12:05 6,4 C 80 % 1018,6 hPa 0,0 l/m 0,0 km/h (0 Bft) S-SO 164 0 min 0,051 mm 0,6 UV-I 91 W/m 3,2 C 6,4 C 0,0 km/h (0 Bft)
17.10.2015 12:10 6,4 C 80 % 1018,6 hPa 0,0 l/m 0,0 km/h (0 Bft) S-SO 163 0 min 0,000 mm 0,5 UV-I 87 W/m 3,2 C 6,4 C 0,0 km/h (0 Bft)
17.10.2015 12:15 6,5 C 80 % 1018,5 hPa 0,0 l/m 0,0 km/h (0 Bft) S-SO 163 0 min 0,000 mm 0,5 UV-I 80 W/m 3,3 C 6,5 C 0,0 km/h (0 Bft)
17.10.2015 12:20 6,5 C 80 % 1018,5 hPa 0,0 l/m 0,0 km/h (0 Bft) S-SO 163 0 min 0,000 mm 0,3 UV-I 67 W/m 3,3 C 6,5 C 0,0 km/h (0 Bft)
17.10.2015 12:25 6,5 C 80 % 1018,5 hPa 0,0 l/m 0,0 km/h (0 Bft) S-SO 163 0 min 0,000 mm 0,0 UV-I 50 W/m 3,3 C 6,5 C 0,0 km/h (0 Bft)
17.10.2015 12:30 6,6 C 80 % 1018,4 hPa 0,0 l/m 0,0 km/h (0 Bft) S-SO 163 0 min 0,000 mm 0,0 UV-I 52 W/m 3,4 C 6,6 C 0,0 km/h (0 Bft)
17.10.2015 12:35 6,7 C 80 % 1018,5 hPa 0,0 l/m 0,0 km/h (0 Bft) S-SO 163 0 min 0,000 mm 0,0 UV-I 49 W/m 3,5 C 6,7 C 0,0 km/h (0 Bft)
17.10.2015 12:40 6,7 C 80 % 1018,4 hPa 0,0 l/m 0,0 km/h (0 Bft) S-SO 163 0 min 0,000 mm 0,0 UV-I 46 W/m 3,5 C 6,7 C 0,0 km/h (0 Bft)
17.10.2015 12:45 6,6 C 80 % 1018,4 hPa 0,0 l/m 0,0 km/h (0 Bft) S-SO 163 0 min 0,000 mm 0,0 UV-I 50 W/m 3,4 C 6,6 C 0,0 km/h (0 Bft)
17.10.2015 12:50 6,6 C 80 % 1018,4 hPa 0,0 l/m 0,0 km/h (0 Bft) S-SO 163 0 min 0,000 mm 0,5 UV-I 64 W/m 3,4 C 6,6 C 1,6 km/h (1 Bft)
17.10.2015 12:55 6,6 C 80 % 1018,3 hPa 0,0 l/m 0,0 km/h (0 Bft) S-SO 163 0 min 0,000 mm 0,5 UV-I 81 W/m 3,4 C 6,6 C 0,0 km/h (0 Bft)
17.10.2015 13:00 6,5 C 80 % 1018,3 hPa 0,0 l/m 0,0 km/h (0 Bft) SO 142 0 min 0,000 mm 0,6 UV-I 91 W/m 3,3 C 6,5 C 0,0 km/h (0 Bft)
17.10.2015 13:05 6,5 C 80 % 1018,4 hPa 0,0 l/m 0,0 km/h (0 Bft) SO 142 0 min 0,025 mm 0,6 UV-I 100 W/m 3,3 C 6,5 C 0,0 km/h (0 Bft)
17.10.2015 13:10 6,5 C 80 % 1018,3 hPa 0,0 l/m 0,0 km/h (0 Bft) SO 142 0 min 0,000 mm 0,6 UV-I 98 W/m 3,3 C 6,5 C 0,0 km/h (0 Bft)
17.10.2015 13:15 6,6 C 80 % 1018,3 hPa 0,0 l/m 0,0 km/h (0 Bft) SO 142 0 min 0,000 mm 0,6 UV-I 82 W/m 3,4 C 6,6 C 0,0 km/h (0 Bft)
17.10.2015 13:20 6,6 C 80 % 1018,3 hPa 0,0 l/m 0,0 km/h (0 Bft) SO 142 0 min 0,000 mm 0,5 UV-I 68 W/m 3,4 C 6,6 C 1,6 km/h (1 Bft)
17.10.2015 13:25 6,5 C 80 % 1018,2 hPa 0,0 l/m 0,0 km/h (0 Bft) SO 142 0 min 0,000 mm 0,5 UV-I 63 W/m 3,3 C 6,5 C 0,0 km/h (0 Bft)
17.10.2015 13:30 6,5 C 80 % 1018,2 hPa 0,0 l/m 0,0 km/h (0 Bft) SO 142 0 min 0,000 mm 0,5 UV-I 62 W/m 3,3 C 6,5 C 0,0 km/h (0 Bft)
17.10.2015 13:35 6,6 C 80 % 1018,1 hPa 0,0 l/m 0,0 km/h (0 Bft) S-SO 150 0 min 0,000 mm 0,5 UV-I 62 W/m 3,4 C 6,6 C 0,0 km/h (0 Bft)
17.10.2015 13:40 6,6 C 80 % 1018,2 hPa 0,0 l/m 0,1 km/h (0 Bft) O-NO 75 0 min 0,000 mm 0,5 UV-I 58 W/m 3,4 C 6,6 C 3,2 km/h (1 Bft)
17.10.2015 13:45 6,5 C 80 % 1018,2 hPa 0,0 l/m 0,0 km/h (0 Bft) SO 128 0 min 0,000 mm 0,5 UV-I 56 W/m 3,3 C 6,5 C 0,0 km/h (0 Bft)
17.10.2015 13:50 6,5 C 80 % 1018,2 hPa 0,0 l/m 0,0 km/h (0 Bft) SO 128 0 min 0,000 mm 0,5 UV-I 64 W/m 3,3 C 6,5 C 0,0 km/h (0 Bft)
17.10.2015 13:55 6,5 C 80 % 1018,2 hPa 0,0 l/m 0,0 km/h (0 Bft) SO 128 0 min 0,000 mm 0,5 UV-I 70 W/m 3,3 C 6,5 C 0,0 km/h (0 Bft)
17.10.2015 14:00 6,5 C 80 % 1018,2 hPa 0,0 l/m 0,0 km/h (0 Bft) SO 128 0 min 0,000 mm 0,5 UV-I 75 W/m 3,3 C 6,5 C 0,0 km/h (0 Bft)
17.10.2015 14:05 6,6 C 80 % 1018,2 hPa 0,0 l/m 0,0 km/h (0 Bft) SO 128 0 min 0,026 mm 0,5 UV-I 70 W/m 3,4 C 6,6 C 0,0 km/h (0 Bft)
17.10.2015 14:10 6,6 C 80 % 1018,2 hPa 0,0 l/m 0,0 km/h (0 Bft) SO 128 0 min 0,000 mm 0,5 UV-I 71 W/m 3,4 C 6,6 C 0,0 km/h (0 Bft)
17.10.2015 14:15 6,6 C 80 % 1018,2 hPa 0,0 l/m 0,0 km/h (0 Bft) SO 128 0 min 0,000 mm 0,4 UV-I 69 W/m 3,4 C 6,6 C 0,0 km/h (0 Bft)
17.10.2015 14:20 6,7 C 80 % 1018,1 hPa 0,0 l/m 0,0 km/h (0 Bft) SO 128 0 min 0,000 mm 0,5 UV-I 71 W/m 3,5 C 6,7 C 1,6 km/h (1 Bft)
17.10.2015 14:25 6,6 C 80 % 1018,1 hPa 0,0 l/m 0,0 km/h (0 Bft) SO 128 0 min 0,000 mm 0,4 UV-I 67 W/m 3,4 C 6,6 C 0,0 km/h (0 Bft)
17.10.2015 14:30 6,7 C 80 % 1018,1 hPa 0,0 l/m 0,2 km/h (0 Bft) SO 128 0 min 0,000 mm 0,4 UV-I 71 W/m 3,5 C 6,7 C 3,2 km/h (1 Bft)
17.10.2015 14:35 6,6 C 80 % 1018,1 hPa 0,0 l/m 0,2 km/h (0 Bft) SO 128 0 min 0,000 mm 0,0 UV-I 57 W/m 3,4 C 6,6 C 3,2 km/h (1 Bft)
17.10.2015 14:40 6,6 C 80 % 1018,0 hPa 0,0 l/m 0,2 km/h (0 Bft) S-SO 151 0 min 0,000 mm 0,0 UV-I 53 W/m 3,4 C 6,6 C 3,2 km/h (1 Bft)
17.10.2015 14:45 6,6 C 80 % 1018,0 hPa 0,0 l/m 0,0 km/h (0 Bft) S-SO 151 0 min 0,000 mm 0,0 UV-I 56 W/m 3,4 C 6,6 C 0,0 km/h (0 Bft)
17.10.2015 14:50 6,6 C 80 % 1017,9 hPa 0,0 l/m 0,0 km/h (0 Bft) S-SO 151 0 min 0,000 mm 0,0 UV-I 51 W/m 3,4 C 6,6 C 0,0 km/h (0 Bft)
17.10.2015 14:55 6,7 C 80 % 1017,9 hPa 0,0 l/m 0,2 km/h (0 Bft) SO 126 0 min 0,000 mm 0,0 UV-I 50 W/m 3,5 C 6,7 C 4,8 km/h (1 Bft)
17.10.2015 15:00 6,6 C 80 % 1017,9 hPa 0,0 l/m 0,6 km/h (0 Bft) O 97 0 min 0,000 mm 0,0 UV-I 57 W/m 3,4 C 6,6 C 4,8 km/h (1 Bft)
17.10.2015 15:05 6,6 C 80 % 1017,9 hPa 0,0 l/m 0,2 km/h (0 Bft) O-SO 117 0 min 0,025 mm 0,0 UV-I 63 W/m 3,4 C 6,6 C 3,2 km/h (1 Bft)
17.10.2015 15:10 6,5 C 80 % 1017,9 hPa 0,0 l/m 0,0 km/h (0 Bft) SO 142 0 min 0,000 mm 0,0 UV-I 59 W/m 3,3 C 6,5 C 1,6 km/h (1 Bft)
17.10.2015 15:15 6,6 C 80 % 1017,9 hPa 0,0 l/m 0,0 km/h (0 Bft) S-SO 155 0 min 0,000 mm 0,0 UV-I 65 W/m 3,4 C 6,6 C 0,0 km/h (0 Bft)
17.10.2015 15:20 6,7 C 80 % 1018,0 hPa 0,0 l/m 0,0 km/h (0 Bft) SO 126 0 min 0,000 mm 0,0 UV-I 71 W/m 3,5 C 6,7 C 0,0 km/h (0 Bft)
17.10.2015 15:25 6,7 C 80 % 1018,0 hPa 0,0 l/m 0,0 km/h (0 Bft) SO 126 0 min 0,000 mm 0,5 UV-I 78 W/m 3,5 C 6,7 C 0,0 km/h (0 Bft)
17.10.2015 15:30 6,7 C 80 % 1018,0 hPa 0,0 l/m 0,1 km/h (0 Bft) O-SO 114 0 min 0,000 mm 0,5 UV-I 82 W/m 3,5 C 6,7 C 1,6 km/h (1 Bft)
17.10.2015 15:35 6,7 C 80 % 1018,0 hPa 0,0 l/m 1,0 km/h (0 Bft) O 80 0 min 0,000 mm 0,5 UV-I 92 W/m 3,5 C 6,7 C 4,8 km/h (1 Bft)
17.10.2015 15:40 6,7 C 80 % 1018,0 hPa 0,0 l/m 0,3 km/h (0 Bft) O-NO 57 0 min 0,000 mm 0,6 UV-I 101 W/m 3,5 C 6,7 C 3,2 km/h (1 Bft)
17.10.2015 15:45 6,7 C 80 % 1018,1 hPa 0,0 l/m 1,0 km/h (0 Bft) O-NO 71 0 min 0,000 mm 0,6 UV-I 102 W/m 3,5 C 6,7 C 8,0 km/h (2 Bft)
17.10.2015 15:50 6,7 C 80 % 1018,1 hPa 0,0 l/m 1,6 km/h (1 Bft) NO 51 0 min 0,000 mm 0,5 UV-I 91 W/m 3,5 C 6,7 C 8,0 km/h (2 Bft)
17.10.2015 15:55 6,8 C 80 % 1018,0 hPa 0,0 l/m 0,8 km/h (0 Bft) O-NO 77 0 min 0,000 mm 0,5 UV-I 76 W/m 3,6 C 6,8 C 4,8 km/h (1 Bft)
17.10.2015 16:00 6,8 C 80 % 1018,1 hPa 0,0 l/m 0,0 km/h (0 Bft) O-NO 76 0 min 0,000 mm 0,5 UV-I 70 W/m 3,6 C 6,8 C 1,6 km/h (1 Bft)
17.10.2015 16:05 6,9 C 80 % 1018,1 hPa 0,0 l/m 0,0 km/h (0 Bft) O-NO 76 0 min 0,026 mm 0,5 UV-I 69 W/m 3,7 C 6,9 C 0,0 km/h (0 Bft)
17.10.2015 16:10 6,9 C 80 % 1018,2 hPa 0,0 l/m 1,2 km/h (1 Bft) NO 49 0 min 0,000 mm 0,5 UV-I 71 W/m 3,7 C 6,9 C 6,4 km/h (2 Bft)
17.10.2015 16:15 6,9 C 80 % 1018,1 hPa 0,0 l/m 1,6 km/h (1 Bft) NO 53 0 min 0,000 mm 0,5 UV-I 77 W/m 3,7 C 6,9 C 8,0 km/h (2 Bft)
17.10.2015 16:20 6,9 C 80 % 1018,2 hPa 0,0 l/m 0,5 km/h (0 Bft) O 87 0 min 0,000 mm 0,0 UV-I 72 W/m 3,7 C 6,9 C 4,8 km/h (1 Bft)
17.10.2015 16:25 6,8 C 80 % 1018,2 hPa 0,0 l/m 0,6 km/h (0 Bft) O 82 0 min 0,000 mm 0,0 UV-I 63 W/m 3,6 C 6,8 C 4,8 km/h (1 Bft)
17.10.2015 16:30 6,8 C 80 % 1018,2 hPa 0,0 l/m 1,3 km/h (1 Bft) NO 48 0 min 0,000 mm 0,0 UV-I 52 W/m 3,6 C 6,8 C 8,0 km/h (2 Bft)
17.10.2015 16:35 6,8 C 80 % 1018,3 hPa 0,0 l/m 1,4 km/h (1 Bft) O-SO 102 0 min 0,000 mm 0,0 UV-I 50 W/m 3,6 C 6,8 C 6,4 km/h (2 Bft)
17.10.2015 16:40 6,8 C 80 % 1018,3 hPa 0,0 l/m 1,7 km/h (1 Bft) NO 55 0 min 0,000 mm 0,0 UV-I 45 W/m 3,6 C 6,8 C 6,4 km/h (2 Bft)
17.10.2015 16:45 6,8 C 80 % 1018,3 hPa 0,0 l/m 1,0 km/h (0 Bft) NO 47 0 min 0,000 mm 0,0 UV-I 45 W/m 3,6 C 6,8 C 4,8 km/h (1 Bft)
17.10.2015 16:50 6,8 C 80 % 1018,3 hPa 0,0 l/m 0,1 km/h (0 Bft) O-NO 63 0 min 0,000 mm 0,0 UV-I 43 W/m 3,6 C 6,8 C 3,2 km/h (1 Bft)
17.10.2015 16:55 6,8 C 80 % 1018,4 hPa 0,0 l/m 0,3 km/h (0 Bft) NO 53 0 min 0,000 mm 0,0 UV-I 39 W/m 3,6 C 6,8 C 4,8 km/h (1 Bft)
17.10.2015 17:00 6,8 C 80 % 1018,3 hPa 0,0 l/m 0,0 km/h (0 Bft) O-NO 65 0 min 0,000 mm 0,0 UV-I 34 W/m 3,6 C 6,8 C 1,6 km/h (1 Bft)
17.10.2015 17:05 6,8 C 80 % 1018,4 hPa 0,0 l/m 0,0 km/h (0 Bft) O-NO 65 0 min 0,025 mm 0,0 UV-I 33 W/m 3,6 C 6,8 C 1,6 km/h (1 Bft)
17.10.2015 17:10 6,7 C 80 % 1018,4 hPa 0,0 l/m 0,8 km/h (0 Bft) NO 51 0 min 0,000 mm 0,0 UV-I 28 W/m 3,5 C 6,7 C 6,4 km/h (2 Bft)
17.10.2015 17:15 6,7 C 80 % 1018,4 hPa 0,0 l/m 0,0 km/h (0 Bft) NO 55 0 min 0,000 mm 0,0 UV-I 24 W/m 3,5 C 6,7 C 1,6 km/h (1 Bft)
17.10.2015 17:20 6,7 C 80 % 1018,4 hPa 0,0 l/m 0,0 km/h (0 Bft) NO 55 0 min 0,000 mm 0,0 UV-I 19 W/m 3,5 C 6,7 C 0,0 km/h (0 Bft)
17.10.2015 17:25 6,7 C 80 % 1018,4 hPa 0,0 l/m 0,0 km/h (0 Bft) NO 55 0 min 0,000 mm 0,0 UV-I 15 W/m 3,5 C 6,7 C 1,6 km/h (1 Bft)
17.10.2015 17:30 6,7 C 80 % 1018,5 hPa 0,0 l/m 0,3 km/h (0 Bft) NO 53 0 min 0,000 mm 0,0 UV-I 12 W/m 3,5 C 6,7 C 4,8 km/h (1 Bft)
17.10.2015 17:35 6,6 C 80 % 1018,5 hPa 0,0 l/m 0,4 km/h (0 Bft) O-NO 58 0 min 0,000 mm 0,0 UV-I 9 W/m 3,4 C 6,6 C 4,8 km/h (1 Bft)
17.10.2015 17:40 6,6 C 80 % 1018,5 hPa 0,0 l/m 0,0 km/h (0 Bft) NO 46 0 min 0,000 mm 0,0 UV-I 7 W/m 3,4 C 6,6 C 0,0 km/h (0 Bft)
17.10.2015 17:45 6,6 C 80 % 1018,5 hPa 0,0 l/m 0,0 km/h (0 Bft) NO 46 0 min 0,000 mm 0,0 UV-I 5 W/m 3,4 C 6,6 C 0,0 km/h (0 Bft)
17.10.2015 17:50 6,6 C 80 % 1018,6 hPa 0,0 l/m 0,0 km/h (0 Bft) NO 46 0 min 0,000 mm 0,0 UV-I 3 W/m 3,4 C 6,6 C 0,0 km/h (0 Bft)
17.10.2015 17:55 6,6 C 80 % 1018,6 hPa 0,0 l/m 0,0 km/h (0 Bft) NO 46 0 min 0,000 mm 0,0 UV-I 0 W/m 3,4 C 6,6 C 0,0 km/h (0 Bft)
17.10.2015 18:00 6,6 C 80 % 1018,6 hPa 0,0 l/m 0,0 km/h (0 Bft) NO 46 0 min 0,000 mm 0,0 UV-I 0 W/m 3,4 C 6,6 C 0,0 km/h (0 Bft)
17.10.2015 18:05 6,6 C 80 % 1018,6 hPa 0,0 l/m 0,0 km/h (0 Bft) NO 46 0 min 0,000 mm 0,0 UV-I 0 W/m 3,4 C 6,6 C 0,0 km/h (0 Bft)
17.10.2015 18:10 6,5 C 80 % 1018,5 hPa 0,0 l/m 0,0 km/h (0 Bft) NO 46 0 min 0,000 mm 0,0 UV-I 0 W/m 3,3 C 6,5 C 0,0 km/h (0 Bft)
17.10.2015 18:15 6,5 C 79 % 1018,6 hPa 0,0 l/m 0,0 km/h (0 Bft) NO 46 0 min 0,000 mm 0,0 UV-I 0 W/m 3,1 C 6,5 C 0,0 km/h (0 Bft)
17.10.2015 18:20 6,4 C 79 % 1018,5 hPa 0,0 l/m 0,0 km/h (0 Bft) NO 46 0 min 0,000 mm 0,0 UV-I 0 W/m 3,0 C 6,4 C 0,0 km/h (0 Bft)
17.10.2015 18:25 6,4 C 79 % 1018,5 hPa 0,0 l/m 0,0 km/h (0 Bft) NO 46 0 min 0,000 mm 0,0 UV-I 0 W/m 3,0 C 6,4 C 0,0 km/h (0 Bft)
17.10.2015 18:30 6,4 C 79 % 1018,5 hPa 0,0 l/m 0,0 km/h (0 Bft) NO 46 0 min 0,000 mm 0,0 UV-I 0 W/m 3,0 C 6,4 C 0,0 km/h (0 Bft)
17.10.2015 18:35 6,4 C 79 % 1018,5 hPa 0,0 l/m 0,0 km/h (0 Bft) NO 46 0 min 0,000 mm 0,0 UV-I 0 W/m 3,0 C 6,4 C 0,0 km/h (0 Bft)
17.10.2015 18:40 6,4 C 79 % 1018,5 hPa 0,0 l/m 0,0 km/h (0 Bft) NO 46 0 min 0,000 mm 0,0 UV-I 0 W/m 3,0 C 6,4 C 0,0 km/h (0 Bft)
17.10.2015 18:45 6,4 C 79 % 1018,4 hPa 0,0 l/m 0,0 km/h (0 Bft) NO 46 0 min 0,000 mm 0,0 UV-I 0 W/m 3,0 C 6,4 C 0,0 km/h (0 Bft)
17.10.2015 18:50 6,3 C 79 % 1018,4 hPa 0,0 l/m 0,0 km/h (0 Bft) NO 46 0 min 0,000 mm 0,0 UV-I 0 W/m 2,9 C 6,3 C 0,0 km/h (0 Bft)
17.10.2015 18:55 6,3 C 79 % 1018,4 hPa 0,0 l/m 0,0 km/h (0 Bft) NO 46 0 min 0,000 mm 0,0 UV-I 0 W/m 2,9 C 6,3 C 0,0 km/h (0 Bft)
17.10.2015 19:00 6,3 C 79 % 1018,4 hPa 0,0 l/m 0,0 km/h (0 Bft) NO 46 0 min 0,000 mm 0,0 UV-I 0 W/m 2,9 C 6,3 C 0,0 km/h (0 Bft)
17.10.2015 19:05 6,3 C 79 % 1018,4 hPa 0,0 l/m 0,0 km/h (0 Bft) NO 46 0 min 0,000 mm 0,0 UV-I 0 W/m 2,9 C 6,3 C 0,0 km/h (0 Bft)
17.10.2015 19:10 6,4 C 79 % 1018,4 hPa 0,0 l/m 0,0 km/h (0 Bft) NO 46 0 min 0,000 mm 0,0 UV-I 0 W/m 3,0 C 6,4 C 0,0 km/h (0 Bft)
17.10.2015 19:15 6,4 C 79 % 1018,4 hPa 0,0 l/m 0,0 km/h (0 Bft) NO 46 0 min 0,000 mm 0,0 UV-I 0 W/m 3,0 C 6,4 C 0,0 km/h (0 Bft)
17.10.2015 19:20 6,4 C 79 % 1018,4 hPa 0,0 l/m 0,0 km/h (0 Bft) NO 46 0 min 0,000 mm 0,0 UV-I 0 W/m 3,0 C 6,4 C 0,0 km/h (0 Bft)
17.10.2015 19:25 6,3 C 79 % 1018,4 hPa 0,0 l/m 0,0 km/h (0 Bft) NO 46 0 min 0,000 mm 0,0 UV-I 0 W/m 2,9 C 6,3 C 0,0 km/h (0 Bft)
17.10.2015 19:30 6,3 C 79 % 1018,4 hPa 0,0 l/m 0,0 km/h (0 Bft) NO 46 0 min 0,000 mm 0,0 UV-I 0 W/m 2,9 C 6,3 C 0,0 km/h (0 Bft)
17.10.2015 19:35 6,3 C 79 % 1018,5 hPa 0,0 l/m 0,0 km/h (0 Bft) NO 46 0 min 0,000 mm 0,0 UV-I 0 W/m 2,9 C 6,3 C 0,0 km/h (0 Bft)
17.10.2015 19:40 6,3 C 79 % 1018,3 hPa 0,0 l/m 0,0 km/h (0 Bft) NO 46 0 min 0,000 mm 0,0 UV-I 0 W/m 2,9 C 6,3 C 0,0 km/h (0 Bft)
17.10.2015 19:45 6,3 C 79 % 1018,4 hPa 0,0 l/m 0,0 km/h (0 Bft) NO 46 0 min 0,000 mm 0,0 UV-I 0 W/m 2,9 C 6,3 C 0,0 km/h (0 Bft)
17.10.2015 19:50 6,3 C 79 % 1018,5 hPa 0,0 l/m 0,0 km/h (0 Bft) NO 46 0 min 0,000 mm 0,0 UV-I 0 W/m 2,9 C 6,3 C 0,0 km/h (0 Bft)
17.10.2015 19:55 6,3 C 79 % 1018,5 hPa 0,0 l/m 0,0 km/h (0 Bft) NO 46 0 min 0,000 mm 0,0 UV-I 0 W/m 2,9 C 6,3 C 0,0 km/h (0 Bft)
17.10.2015 20:00 6,3 C 79 % 1018,6 hPa 0,0 l/m 0,0 km/h (0 Bft) NO 46 0 min 0,000 mm 0,0 UV-I 0 W/m 2,9 C 6,3 C 0,0 km/h (0 Bft)
17.10.2015 20:05 6,3 C 79 % 1018,6 hPa 0,0 l/m 0,0 km/h (0 Bft) NO 46 0 min 0,000 mm 0,0 UV-I 0 W/m 2,9 C 6,3 C 0,0 km/h (0 Bft)
17.10.2015 20:10 6,2 C 79 % 1018,6 hPa 0,0 l/m 0,0 km/h (0 Bft) NO 46 0 min 0,000 mm 0,0 UV-I 0 W/m 2,8 C 6,2 C 0,0 km/h (0 Bft)
17.10.2015 20:15 6,3 C 79 % 1018,6 hPa 0,0 l/m 0,0 km/h (0 Bft) NO 46 0 min 0,000 mm 0,0 UV-I 0 W/m 2,9 C 6,3 C 0,0 km/h (0 Bft)
17.10.2015 20:20 6,2 C 79 % 1018,7 hPa 0,0 l/m 0,0 km/h (0 Bft) NO 46 0 min 0,000 mm 0,0 UV-I 0 W/m 2,8 C 6,2 C 0,0 km/h (0 Bft)
17.10.2015 20:25 6,2 C 79 % 1018,6 hPa 0,0 l/m 0,0 km/h (0 Bft) NO 46 0 min 0,000 mm 0,0 UV-I 0 W/m 2,8 C 6,2 C 0,0 km/h (0 Bft)
17.10.2015 20:30 6,2 C 79 % 1018,7 hPa 0,0 l/m 0,0 km/h (0 Bft) NO 46 0 min 0,000 mm 0,0 UV-I 0 W/m 2,8 C 6,2 C 0,0 km/h (0 Bft)
17.10.2015 20:35 6,2 C 79 % 1018,7 hPa 0,0 l/m 0,0 km/h (0 Bft) NO 46 0 min 0,000 mm 0,0 UV-I 0 W/m 2,8 C 6,2 C 0,0 km/h (0 Bft)
17.10.2015 20:40 6,1 C 79 % 1018,7 hPa 0,0 l/m 0,0 km/h (0 Bft) NO 46 0 min 0,000 mm 0,0 UV-I 0 W/m 2,7 C 6,1 C 0,0 km/h (0 Bft)
17.10.2015 20:45 6,1 C 79 % 1018,7 hPa 0,0 l/m 0,0 km/h (0 Bft) NO 46 0 min 0,000 mm 0,0 UV-I 0 W/m 2,7 C 6,1 C 0,0 km/h (0 Bft)
17.10.2015 20:50 6,1 C 79 % 1018,8 hPa 0,0 l/m 0,0 km/h (0 Bft) NO 46 0 min 0,000 mm 0,0 UV-I 0 W/m 2,7 C 6,1 C 0,0 km/h (0 Bft)
17.10.2015 20:55 6,0 C 79 % 1018,8 hPa 0,0 l/m 0,0 km/h (0 Bft) NO 46 0 min 0,000 mm 0,0 UV-I 0 W/m 2,6 C 6,0 C 0,0 km/h (0 Bft)
17.10.2015 21:00 6,0 C 79 % 1018,8 hPa 0,0 l/m 0,0 km/h (0 Bft) NO 46 0 min 0,000 mm 0,0 UV-I 0 W/m 2,6 C 6,0 C 0,0 km/h (0 Bft)
17.10.2015 21:05 6,0 C 79 % 1018,9 hPa 0,0 l/m 0,0 km/h (0 Bft) NO 46 0 min 0,000 mm 0,0 UV-I 0 W/m 2,6 C 6,0 C 0,0 km/h (0 Bft)
17.10.2015 21:10 6,0 C 79 % 1018,9 hPa 0,0 l/m 0,0 km/h (0 Bft) NO 46 0 min 0,000 mm 0,0 UV-I 0 W/m 2,6 C 6,0 C 0,0 km/h (0 Bft)
17.10.2015 21:15 6,0 C 79 % 1018,9 hPa 0,0 l/m 0,0 km/h (0 Bft) NO 46 0 min 0,000 mm 0,0 UV-I 0 W/m 2,6 C 6,0 C 0,0 km/h (0 Bft)
17.10.2015 21:20 6,1 C 79 % 1018,9 hPa 0,0 l/m 0,0 km/h (0 Bft) NO 46 0 min 0,000 mm 0,0 UV-I 0 W/m 2,7 C 6,1 C 0,0 km/h (0 Bft)
17.10.2015 21:25 6,1 C 78 % 1018,9 hPa 0,0 l/m 0,0 km/h (0 Bft) NO 46 0 min 0,000 mm 0,0 UV-I 0 W/m 2,6 C 6,1 C 0,0 km/h (0 Bft)
17.10.2015 21:30 6,1 C 78 % 1018,9 hPa 0,0 l/m 0,0 km/h (0 Bft) NO 46 0 min 0,000 mm 0,0 UV-I 0 W/m 2,6 C 6,1 C 0,0 km/h (0 Bft)
17.10.2015 21:35 6,1 C 78 % 1018,9 hPa 0,0 l/m 0,0 km/h (0 Bft) NO 46 0 min 0,000 mm 0,0 UV-I 0 W/m 2,6 C 6,1 C 0,0 km/h (0 Bft)
17.10.2015 21:40 6,0 C 79 % 1018,9 hPa 0,0 l/m 0,0 km/h (0 Bft) NO 46 0 min 0,000 mm 0,0 UV-I 0 W/m 2,6 C 6,0 C 0,0 km/h (0 Bft)
17.10.2015 21:45 5,9 C 79 % 1018,9 hPa 0,0 l/m 0,0 km/h (0 Bft) NO 46 0 min 0,000 mm 0,0 UV-I 0 W/m 2,5 C 5,9 C 0,0 km/h (0 Bft)
17.10.2015 21:50 5,9 C 79 % 1019,0 hPa 0,0 l/m 0,0 km/h (0 Bft) NO 46 0 min 0,000 mm 0,0 UV-I 0 W/m 2,5 C 5,9 C 0,0 km/h (0 Bft)
17.10.2015 21:55 5,9 C 79 % 1019,0 hPa 0,0 l/m 0,0 km/h (0 Bft) NO 46 0 min 0,000 mm 0,0 UV-I 0 W/m 2,5 C 5,9 C 0,0 km/h (0 Bft)
17.10.2015 22:00 5,9 C 79 % 1019,0 hPa 0,0 l/m 0,0 km/h (0 Bft) NO 46 0 min 0,000 mm 0,0 UV-I 0 W/m 2,5 C 5,9 C 0,0 km/h (0 Bft)
17.10.2015 22:05 5,9 C 79 % 1019,0 hPa 0,0 l/m 0,0 km/h (0 Bft) NO 46 0 min 0,000 mm 0,0 UV-I 0 W/m 2,5 C 5,9 C 0,0 km/h (0 Bft)
17.10.2015 22:10 5,8 C 79 % 1019,0 hPa 0,0 l/m 0,0 km/h (0 Bft) NO 46 0 min 0,000 mm 0,0 UV-I 0 W/m 2,4 C 5,8 C 0,0 km/h (0 Bft)
17.10.2015 22:15 5,8 C 79 % 1019,0 hPa 0,0 l/m 0,0 km/h (0 Bft) NO 46 0 min 0,000 mm 0,0 UV-I 0 W/m 2,4 C 5,8 C 0,0 km/h (0 Bft)
17.10.2015 22:20 5,8 C 79 % 1019,0 hPa 0,0 l/m 0,0 km/h (0 Bft) NO 46 0 min 0,000 mm 0,0 UV-I 0 W/m 2,4 C 5,8 C 0,0 km/h (0 Bft)
17.10.2015 22:25 5,8 C 79 % 1019,1 hPa 0,0 l/m 0,0 km/h (0 Bft) NO 46 0 min 0,000 mm 0,0 UV-I 0 W/m 2,4 C 5,8 C 0,0 km/h (0 Bft)
17.10.2015 22:30 5,8 C 79 % 1019,1 hPa 0,0 l/m 0,0 km/h (0 Bft) NO 46 0 min 0,000 mm 0,0 UV-I 0 W/m 2,4 C 5,8 C 0,0 km/h (0 Bft)
17.10.2015 22:35 5,8 C 79 % 1019,1 hPa 0,0 l/m 0,0 km/h (0 Bft) NO 46 0 min 0,000 mm 0,0 UV-I 0 W/m 2,4 C 5,8 C 0,0 km/h (0 Bft)
17.10.2015 22:40 5,9 C 78 % 1019,1 hPa 0,0 l/m 0,0 km/h (0 Bft) NO 46 0 min 0,000 mm 0,0 UV-I 0 W/m 2,4 C 5,9 C 0,0 km/h (0 Bft)
17.10.2015 22:45 5,9 C 78 % 1019,2 hPa 0,0 l/m 0,0 km/h (0 Bft) NO 46 0 min 0,000 mm 0,0 UV-I 0 W/m 2,4 C 5,9 C 0,0 km/h (0 Bft)
17.10.2015 22:50 5,9 C 78 % 1019,1 hPa 0,0 l/m 0,0 km/h (0 Bft) NO 46 0 min 0,000 mm 0,0 UV-I 0 W/m 2,4 C 5,9 C 0,0 km/h (0 Bft)
17.10.2015 22:55 5,9 C 78 % 1019,1 hPa 0,0 l/m 0,0 km/h (0 Bft) NO 46 0 min 0,000 mm 0,0 UV-I 0 W/m 2,4 C 5,9 C 0,0 km/h (0 Bft)
17.10.2015 23:00 5,8 C 78 % 1019,1 hPa 0,0 l/m 0,0 km/h (0 Bft) NO 46 0 min 0,000 mm 0,0 UV-I 0 W/m 2,3 C 5,8 C 0,0 km/h (0 Bft)
17.10.2015 23:05 5,8 C 79 % 1019,1 hPa 0,0 l/m 0,0 km/h (0 Bft) NO 46 0 min 0,000 mm 0,0 UV-I 0 W/m 2,4 C 5,8 C 0,0 km/h (0 Bft)
17.10.2015 23:10 5,8 C 78 % 1019,2 hPa 0,0 l/m 0,0 km/h (0 Bft) NO 46 0 min 0,000 mm 0,0 UV-I 0 W/m 2,3 C 5,8 C 0,0 km/h (0 Bft)
17.10.2015 23:15 5,8 C 79 % 1019,1 hPa 0,0 l/m 0,0 km/h (0 Bft) NO 46 0 min 0,000 mm 0,0 UV-I 0 W/m 2,4 C 5,8 C 0,0 km/h (0 Bft)
17.10.2015 23:20 5,8 C 79 % 1019,2 hPa 0,0 l/m 0,0 km/h (0 Bft) NO 46 0 min 0,000 mm 0,0 UV-I 0 W/m 2,4 C 5,8 C 0,0 km/h (0 Bft)
17.10.2015 23:25 5,8 C 79 % 1019,1 hPa 0,0 l/m 0,0 km/h (0 Bft) NO 46 0 min 0,000 mm 0,0 UV-I 0 W/m 2,4 C 5,8 C 0,0 km/h (0 Bft)
17.10.2015 23:30 5,8 C 78 % 1019,1 hPa 0,0 l/m 0,0 km/h (0 Bft) NO 46 0 min 0,000 mm 0,0 UV-I 0 W/m 2,3 C 5,8 C 0,0 km/h (0 Bft)
17.10.2015 23:35 5,8 C 78 % 1019,2 hPa 0,0 l/m 0,0 km/h (0 Bft) NO 46 0 min 0,000 mm 0,0 UV-I 0 W/m 2,3 C 5,8 C 0,0 km/h (0 Bft)
17.10.2015 23:40 5,8 C 78 % 1019,1 hPa 0,0 l/m 0,0 km/h (0 Bft) NO 46 0 min 0,000 mm 0,0 UV-I 0 W/m 2,3 C 5,8 C 0,0 km/h (0 Bft)
17.10.2015 23:45 5,7 C 78 % 1019,1 hPa 0,0 l/m 0,0 km/h (0 Bft) NO 46 0 min 0,000 mm 0,0 UV-I 0 W/m 2,2 C 5,7 C 0,0 km/h (0 Bft)
17.10.2015 23:50 5,7 C 78 % 1019,1 hPa 0,0 l/m 0,0 km/h (0 Bft) NO 46 0 min 0,000 mm 0,0 UV-I 0 W/m 2,2 C 5,7 C 0,0 km/h (0 Bft)
17.10.2015 23:55 5,7 C 78 % 1019,1 hPa 0,0 l/m 0,0 km/h (0 Bft) NO 46 0 min 0,000 mm 0,0 UV-I 0 W/m 2,2 C 5,7 C 0,0 km/h (0 Bft)
_ Min-Zeit 08:20 00:00 07:55 - 00:00 - - - - - - 23:45 06:40 00:00
Minimum _ 5,6 C 78 % 1017,2 hPa - 0,0 km/h (0 Bft) - - - - - - 2,2 C 5,7 C 0,0 km/h (0 Bft)
_ Max-Zeit 16:05 11:15 22:45 00:00 16:40 - - 00:00 12:05 11:25 10:30 16:05 16:05 15:45
Maximum _ 6,9 C 80 % 1019,2 hPa 0,0 l/m 1,7 km/h
NO (1 Bft)
- - 0 min 0,051 mm 0,6 UV-I 113 W/m 3,7 C 6,9 C 8,0 km/h
O-NO (2 Bft)
Durchschnitt _ 6,2 C 79 % 1018,2 hPa #0,0 l/m 0,1 km/h (0 Bft) NO - #0 min. #0,254 mm 0,5 UV-I 59 W/m 2,9 C 6,2 C 0,7 km/h (0 Bft)